Temp
39 41 40 39 39 36 37 36 35 35 34 35 34 33 32 31 31 31 31 31 31 31 32 32 32 34 34 35 35 35 34 34 31 34 31 33 33 34 35 35 35 36 37
34 35 35 35 35 35 35 34 34 34 34 34 33 32 31 30 29 30 29 30 30 30 31 31 31 32 32 33 33 32 32 33 31 30 34 34 32 33 32 31 33 34 35
33 33 33 34 34 33 33 33 34 33 32 32 32 31 30 29 29 30 30 30 30 30 29 30 30 30 30 32 32 32 32 32 32 30 30 34 35 35 33 32 32 33 34
29 31 31 33 33 33 33 32 32 33 32 32 32 32 31 30 30 30 30 29 29 29 29 29 30 30 31 31 31 31 32 31 31 30 31 32 32 33 31 30 30 32 34
25 27 28 30 30 30 30 30 31 31 31 31 30 30 30 30 30 29 29 28 28 28 28 30 31 31 32 33 32 32 32 31 31 30 30 30 30 29 29 28 26 29 32
24 23 24 26 27 27 28 28 29 28 28 29 29 29 28 30 33 33 31 29 29 28 28 29 30 30 32 34 35 35 33 31 30 29 30 28 29 29 30 27 26 27 30
25 26 26 27 26 24 26 27 26 26 27 27 27 28 28 29 34 35 34 29 29 28 29 30 30 31 30 31 33 35 35 35 35 32 29 29 27 29 28 25 24 25 28
25 25 26 26 25 25 25 25 25 25 25 25 25 26 27 28 34 35 34 31 30 30 30 30 30 30 31 30 30 30 31 31 33 33 31 31 30 30 28 28 27 25 25
24 24 24 25 24 24 24 23 24 24 24 25 26 25 26 27 32 34 34 32 30 30 31 31 30 30 31 33 30 29 29 29 33 35 35 33 34 34 32 28 25 25 25
23 23 24 24 23 23 23 23 23 24 24 25 26 26 26 26 30 32 33 31 29 29 30 30 30 31 32 34 31 29 26 28 28 27 27 30 33 32 34 31 30 26 26
23 23 22 23 22 23 22 22 22 23 23 22 23 23 24 25 26 32 33 30 29 28 28 28 30 33 34 34 34 30 29 30 29 28 27 27 27 27 28 30 31 29 29
21 20 20 20 22 22 21 21 21 21 21 20 21 21 23 23 25 29 32 33 32 29 28 29 29 32 34 34 34 33 34 33 30 28 28 26 25 26 27 27 28 30 32
19 18 18 19 20 20 20 19 19 20 20 19 20 21 22 24 24 29 31 32 33 29 29 29 31 32 30 28 29 30 28 28 28 28 27 27 27 28 27 26 26 27 27
17 16 17 17 17 18 20 20 20 18 18 19 20 20 20 21 22 23 24 26 29 26 28 25 27 27 27 25 22 24 23 24 24 25 26 26 26 25 25 26 26 26 25
16 16 17 18 17 17 18 19 19 19 20 19 20 20 18 19 21 25 24 22 22 24 17 18 19 19 20 19 19 18 19 20 20 22 23 24 24 24 24 24 23 24 23
16 16 17 17 16 16 16 16 22 23 25 26 25 21 20 24 27 28 29 30 29 29 18 17 18 18 18 18 17 17 16 16 18 19 20 20 21 21 21 20 21 21 21
13 16 16 16 15 14 14 14 14 18 24 26 28 29 27 25 28 29 30 31 31 31 21 17 18 18 17 17 16 15 16 15 11 14 16 17 17 17 16 18 18 19 19
11 13 13 13 13 12 12 12 11 11 11 12 17 21 23 25 26 27 28 29 22 24 19 19 17 16 16 16 15 13 13 13 11 12 12 13 13 14 14 14 15 14 16
6 8 7 9 9 9 10 10 9 9 9 9 9 14 12 19 21 24 26 17 17 17 16 14 15 15 14 13 13 12 12 11 11 10 9 9 10 9 10 11 12 9 9
1 5 6 6 4 6 7 8 7 7 7 7 7 8 7 8 9 7 6 6 8 9 9 9 10 7 7 8 8 6 6 5 5 5 5 5 6 6 7 9 9 10 9
2 5 5 2 4 4 5 5 6 6 6 6 7 8 11 5 7 5 4 3 4 4 5 4 4 3 3 3 2 3 2 5 2 2 3 3 3 2 4 7 8 7 8
-6 -3 -3 2 3 4 5 5 4 5 5 5 5 4 15 12 7 6 4 4 4 3 4 3 2 2 2 1 2 1 0 0 0 -1 1 -1 0 1 1 2 3 4 4
-10 -10 -12 -12 -11 -8 -9 -5 -2 -2 -1 -1 -1 -1 -1 -1 -0 0 1 1 -0 -1 -1 -3 -1 -2 -2 -2 0 2 1 0 1 1 -0 -1 -2 -1 -1 -0 -0 -1 -0
-7 -8 -8 -8 -12 -12 -10 -8 -8 -7 -6 -5 -5 -4 -3 -2 -3 -2 -2 -1 -3 -3 -4 -5 -5 -3 -3 -4 -3 -3 -2 -0 -0 -0 -2 -1 -1 -1 -1 -1 -1 -1 -0
-13 -11 -10 -7 -8 -7 -8 -7 -7 -7 -6 -5 -4 -4 -2 -3 -3 -4 -4 -5 -6 -6 -5 -6 -6 -4 -3 -3 -4 -5 -6 1 -1 -2 -2 -0 -1 -2 -2 -0 -1 -0 0
-8 -9 -9 -10 -10 -10 -9 -6 -6 -5 -5 -4 -4 -3 -3 -4 -3 -4 -5 -7 -7 -7 -7 -6 -6 -6 -5 -4 -3 -2 -4 1 -2 -2 0 -0 -1 -2 -2 -3 -3 -1 0
MSLP
1002.23 1002.76 1003.29 1004.43 1005.04 1005.35 1006.32 1007.46 1008.43 1009.58 1010.58 1011.72 1012.86 1014.09 1015.16 1016.05 1016.79 1017.53 1018.25 1018.82 1019.34 1019.80 1020.03 1020.42 1020.73 1020.90 1021.17 1021.35 1021.57 1021.67 1022.04 1022.35 1022.37 1022.29 1022.55 1022.31 1022.47 1022.20 1022.21 1022.33 1022.14 1022.19 1022.25
1002.57 1002.97 1003.80 1004.35 1004.86 1006.29 1006.46 1007.28 1008.36 1009.31 1010.31 1011.32 1012.50 1013.68 1014.88 1015.75 1016.54 1017.14 1017.86 1018.42 1018.95 1019.40 1019.67 1020.05 1020.38 1020.70 1020.93 1021.13 1021.29 1021.47 1021.68 1022.08 1022.26 1022.19 1022.08 1022.06 1022.15 1022.07 1022.08 1022.19 1021.90 1021.82 1021.78
1003.19 1003.50 1004.16 1004.71 1005.17 1005.64 1007.14 1007.49 1008.29 1009.36 1010.31 1011.34 1012.34 1013.47 1014.56 1015.38 1016.12 1016.79 1017.28 1017.90 1018.38 1018.86 1019.21 1019.69 1020.09 1020.49 1020.67 1020.84 1020.93 1021.06 1021.26 1021.69 1021.81 1021.92 1021.81 1021.79 1021.73 1021.89 1021.80 1021.79 1021.93 1021.45 1021.26
1003.83 1004.15 1004.65 1004.97 1005.19 1005.84 1006.15 1007.49 1008.31 1009.24 1010.25 1011.29 1012.16 1013.18 1014.14 1014.98 1015.60 1016.19 1016.91 1017.47 1017.91 1018.46 1018.90 1019.38 1019.74 1019.98 1020.18 1020.42 1020.62 1020.59 1020.87 1021.25 1021.35 1021.38 1021.28 1021.36 1021.38 1021.57 1021.73 1021.85 1021.73 1021.42 1020.88
1004.59 1004.86 1005.10 1005.36 1005.70 1006.57 1007.21 1007.87 1008.45 1009.39 1010.30 1011.37 1012.25 1013.31 1014.03 1014.70 1015.26 1015.73 1016.43 1017.06 1017.50 1018.01 1018.54 1018.90 1019.20 1019.45 1019.69 1019.88 1020.16 1020.18 1020.36 1020.69 1020.89 1020.92 1020.85 1020.93 1020.86 1021.08 1021.41 1021.85 1022.06 1021.52 1020.95
1005.54 1005.85 1006.03 1006.31 1006.60 1007.19 1007.79 1008.47 1009.18 1010.24 1010.94 1011.70 1012.60 1013.30 1013.93 1014.57 1015.00 1015.39 1015.88 1016.48 1017.03 1017.47 1017.89 1018.29 1018.65 1018.92 1019.08 1019.27 1019.49 1019.65 1019.81 1019.86 1020.16 1020.41 1020.37 1020.36 1020.54 1020.79 1021.25 1021.76 1021.90 1021.50 1020.93
1006.27 1006.78 1007.00 1007.25 1007.73 1008.28 1008.70 1009.15 1009.85 1010.68 1011.37 1012.00 1012.83 1013.50 1014.04 1014.41 1014.87 1015.19 1015.54 1016.07 1016.48 1016.88 1017.18 1017.63 1018.03 1018.26 1018.50 1018.77 1018.88 1018.90 1018.99 1019.16 1019.41 1019.80 1019.92 1019.99 1020.14 1020.52 1021.32 1021.54 1021.94 1021.84 1021.38
1006.93 1007.59 1007.85 1008.10 1008.51 1009.03 1009.53 1010.08 1010.63 1011.22 1011.73 1012.32 1012.90 1013.50 1014.04 1014.49 1014.66 1014.94 1015.25 1015.63 1016.04 1016.39 1016.69 1016.97 1017.23 1017.64 1018.03 1018.34 1018.37 1018.73 1018.61 1018.69 1018.82 1019.09 1019.27 1019.46 1019.76 1020.23 1020.77 1020.98 1021.56 1021.83 1021.37
1007.64 1008.38 1008.62 1008.62 1009.06 1009.57 1010.08 1010.68 1011.20 1011.63 1012.01 1012.38 1012.79 1013.31 1013.86 1014.33 1014.42 1014.59 1014.77 1015.14 1015.44 1015.83 1016.27 1016.57 1016.69 1017.00 1017.34 1017.80 1018.07 1018.29 1018.26 1018.33 1018.36 1018.51 1018.65 1018.89 1019.06 1019.37 1020.01 1020.53 1020.98 1021.40 1021.01
1008.64 1009.04 1009.17 1009.37 1009.62 1010.07 1010.46 1010.91 1011.38 1011.69 1012.02 1012.45 1012.76 1013.28 1013.76 1013.97 1014.11 1014.37 1014.61 1014.82 1015.12 1015.34 1015.75 1016.24 1016.58 1016.54 1016.78 1016.96 1017.31 1017.69 1017.81 1017.68 1018.13 1018.40 1018.36 1018.46 1018.34 1018.77 1018.92 1019.34 1019.63 1020.27 1020.43
1009.38 1009.60 1009.76 1009.98 1009.95 1010.41 1010.81 1011.02 1011.39 1011.88 1012.11 1012.56 1012.95 1013.08 1013.53 1013.65 1013.86 1013.91 1014.08 1014.41 1014.72 1015.00 1015.28 1015.78 1016.09 1016.13 1016.21 1016.48 1016.55 1016.89 1017.11 1017.31 1017.46 1017.59 1017.74 1018.06 1018.19 1018.37 1018.53 1018.74 1018.78 1019.18 1019.37
1009.97 1010.17 1010.42 1010.59 1010.72 1010.96 1011.21 1011.32 1011.67 1012.49 1012.44 1012.52 1012.94 1013.20 1013.46 1013.42 1013.59 1013.93 1013.96 1014.11 1014.47 1014.68 1014.80 1015.31 1015.78 1015.99 1016.01 1015.99 1016.02 1016.19 1016.30 1016.63 1017.00 1016.90 1017.14 1017.41 1017.61 1017.76 1017.82 1018.03 1018.09 1018.41 1018.57
1010.49 1010.78 1011.12 1011.25 1011.22 1011.25 1011.37 1011.58 1012.11 1012.54 1012.42 1012.52 1012.81 1013.03 1013.13 1013.10 1013.42 1013.66 1013.70 1013.72 1014.10 1014.21 1014.78 1015.30 1015.43 1015.72 1016.09 1016.24 1015.98 1016.18 1016.33 1016.41 1016.52 1016.77 1016.65 1016.56 1016.61 1016.80 1017.25 1017.63 1017.81 1018.04 1018.17
1011.04 1011.21 1011.44 1011.58 1011.59 1011.62 1011.72 1011.95 1012.26 1012.40 1012.27 1012.38 1012.61 1012.82 1013.15 1013.28 1013.57 1013.49 1013.66 1013.93 1014.17 1014.76 1015.19 1015.44 1015.47 1015.76 1016.34 1016.57 1016.24 1016.35 1016.64 1016.82 1016.65 1016.74 1016.63 1016.61 1016.60 1016.65 1016.90 1017.24 1017.53 1017.61 1018.00
1011.43 1011.61 1011.66 1011.70 1011.77 1011.87 1011.96 1012.10 1012.33 1012.50 1012.35 1012.43 1012.76 1012.95 1013.27 1013.58 1013.70 1013.73 1013.76 1014.12 1014.35 1014.67 1015.33 1015.78 1015.96 1016.20 1016.39 1016.73 1016.80 1016.77 1017.05 1016.89 1016.82 1016.51 1016.55 1016.56 1016.56 1016.64 1016.67 1017.03 1017.15 1017.39 1017.73
1011.50 1011.59 1011.61 1011.73 1011.98 1012.27 1012.49 1012.58 1012.57 1012.79 1012.69 1012.55 1012.79 1013.03 1013.37 1013.40 1013.35 1013.27 1013.29 1013.58 1013.82 1014.20 1015.10 1015.61 1016.01 1016.32 1016.35 1016.59 1016.55 1016.88 1017.03 1017.04 1016.70 1016.64 1016.74 1016.87 1016.70 1016.66 1016.71 1016.85 1016.99 1017.24 1017.25
1011.98 1011.93 1012.04 1012.24 1012.43 1012.68 1012.99 1012.82 1013.20 1013.15 1012.86 1012.75 1012.48 1012.41 1012.74 1012.97 1013.06 1013.14 1012.92 1013.21 1013.35 1013.50 1014.21 1015.07 1015.64 1016.01 1016.14 1016.34 1016.59 1016.81 1016.73 1016.81 1017.12 1016.93 1016.75 1016.89 1016.96 1016.82 1016.81 1017.13 1017.23 1017.16 1016.93
1012.44 1012.45 1012.49 1012.56 1012.75 1012.93 1012.90 1012.97 1013.06 1013.11 1013.25 1013.35 1013.14 1012.80 1012.94 1012.62 1012.89 1012.69 1012.69 1012.89 1013.39 1013.59 1014.12 1014.61 1015.00 1015.28 1015.68 1015.82 1016.12 1016.45 1016.60 1016.67 1016.64 1016.89 1016.88 1017.07 1016.97 1017.00 1017.05 1017.02 1017.22 1017.21 1017.01
1012.41 1012.44 1012.47 1012.56 1012.69 1012.85 1013.01 1013.29 1013.34 1013.41 1013.46 1013.43 1013.52 1013.24 1013.17 1012.90 1012.73 1012.89 1013.11 1013.52 1013.94 1014.07 1014.24 1014.46 1014.64 1014.86 1014.98 1015.33 1015.74 1016.05 1016.18 1016.38 1016.34 1016.35 1016.41 1016.64 1017.01 1016.84 1016.77 1016.75 1016.94 1016.90 1017.02
1012.54 1012.45 1012.37 1012.47 1012.62 1012.78 1012.92 1012.97 1013.00 1013.12 1013.27 1013.24 1013.29 1013.43 1013.46 1013.59 1013.53 1013.73 1014.03 1014.17 1014.05 1014.05 1014.26 1014.38 1014.40 1014.68 1014.86 1015.10 1015.43 1015.97 1016.27 1016.36 1016.21 1016.19 1016.31 1016.69 1016.84 1016.84 1016.67 1016.61 1016.63 1016.64 1016.64
1012.45 1012.39 1012.35 1012.46 1012.56 1012.61 1012.82 1012.89 1012.91 1012.98 1013.05 1013.10 1012.97 1012.97 1013.00 1013.17 1013.33 1013.61 1013.76 1013.92 1013.95 1013.89 1014.01 1014.20 1014.31 1014.50 1014.71 1015.02 1015.32 1015.58 1015.82 1015.82 1016.00 1016.09 1016.24 1016.35 1016.49 1016.56 1016.54 1016.43 1016.43 1016.38 1016.36
1012.58 1012.49 1012.51 1012.59 1012.62 1012.72 1012.67 1012.67 1012.81 1012.88 1012.89 1012.95 1012.81 1012.80 1012.52 1012.70 1013.05 1013.26 1013.40 1013.52 1013.50 1013.53 1013.61 1013.95 1014.16 1014.31 1014.47 1014.68 1014.85 1015.16 1015.39 1015.53 1015.70 1015.89 1015.93 1015.98 1016.05 1016.06 1016.15 1016.06 1016.00 1016.01 1016.05
1012.59 1012.52 1012.55 1012.59 1012.62 1012.65 1012.76 1012.80 1012.94 1012.97 1012.87 1012.81 1012.73 1012.77 1012.83 1012.85 1012.96 1013.05 1013.09 1013.07 1013.08 1013.08 1013.23 1013.52 1013.62 1013.64 1013.82 1014.01 1014.09 1014.17 1014.41 1014.59 1014.70 1014.99 1015.31 1015.48 1015.64 1015.72 1015.82 1015.75 1015.68 1015.77 1015.80
1012.51 1012.50 1012.51 1012.45 1012.48 1012.54 1012.56 1012.48 1012.37 1012.33 1012.32 1012.33 1012.34 1012.35 1012.36 1012.34 1012.43 1012.51 1012.47 1012.44 1012.53 1012.56 1012.73 1012.94 1013.00 1013.05 1013.19 1013.41 1013.51 1013.65 1013.80 1013.90 1014.17 1014.45 1014.84 1015.03 1015.12 1015.22 1015.29 1015.29 1015.27 1015.24 1015.29
1011.71 1011.67 1011.75 1011.72 1011.75 1011.73 1011.75 1011.70 1011.65 1011.59 1011.59 1011.59 1011.51 1011.49 1011.41 1011.51 1011.62 1011.71 1011.74 1011.80 1011.88 1012.02 1012.09 1012.28 1012.36 1012.33 1012.34 1012.47 1012.73 1012.99 1013.17 1013.25 1013.55 1013.79 1014.17 1014.36 1014.49 1014.62 1014.71 1014.74 1014.76 1014.76 1014.85
1010.56 1010.58 1010.61 1010.63 1010.71 1010.75 1010.81 1010.71 1010.58 1010.56 1010.59 1010.62 1010.64 1010.65 1010.69 1010.73 1010.74 1010.79 1010.90 1011.06 1011.16 1011.21 1011.29 1011.40 1011.49 1011.62 1011.70 1011.79 1011.89 1012.09 1012.38 1012.58 1012.88 1013.08 1013.35 1013.66 1013.91 1014.05 1014.21 1014.35 1014.42 1014.48 1014.45
Wind_Speed
9 9 10 7 7 11 12 11 12 12 13 13 13 12 11 10 8 8 7 8 8 8 7 7 7 5 5 5 4 3 4 4 7 4 2 1 2 2 2 2 3 5 7
5 6 8 10 12 9 11 12 12 12 11 13 13 12 11 10 9 9 9 8 8 8 8 7 7 5 6 5 5 6 6 6 5 8 5 4 5 3 4 4 3 4 6
6 8 9 9 10 12 9 9 11 12 11 11 12 12 12 11 10 8 9 9 8 8 8 7 7 6 6 6 7 7 6 5 6 6 6 3 3 2 3 2 4 6 4
5 7 8 8 9 9 13 13 12 11 12 11 11 11 11 10 10 9 8 7 7 6 6 7 7 8 8 8 8 8 6 7 7 7 7 7 5 3 1 3 6 2 3
6 6 7 8 10 10 10 9 11 11 10 10 11 9 9 9 7 9 8 8 8 7 7 7 7 8 12 10 7 8 8 8 7 7 7 6 6 3 4 1 3 3 2
8 8 7 8 9 9 10 10 10 9 9 9 8 8 9 6 14 15 11 8 8 8 8 8 8 9 12 16 17 16 12 9 9 7 6 7 5 3 1 2 2 2 1
9 8 8 9 9 8 8 8 8 8 8 8 7 7 7 6 15 16 16 7 8 8 8 8 7 7 9 9 13 17 17 18 16 8 9 7 4 2 2 3 3 3 3
8 7 6 7 8 7 7 7 6 5 6 6 6 6 6 5 13 14 14 8 8 9 9 9 8 8 9 9 8 9 7 5 6 7 8 7 6 5 6 3 2 3 3
7 5 4 6 7 6 7 6 5 5 5 5 5 6 7 7 14 14 11 6 7 9 8 8 9 9 11 15 9 9 7 7 7 13 14 14 14 15 10 5 4 5 6
5 5 5 5 6 6 6 5 3 4 5 5 6 6 7 6 10 13 12 4 6 5 6 8 13 10 14 17 10 8 8 6 7 6 4 9 12 8 15 10 6 7 6
5 5 5 5 6 5 4 4 4 3 5 4 4 4 4 5 5 11 13 6 5 5 5 5 5 14 17 16 16 8 9 7 10 7 6 5 5 6 6 6 7 7 7
5 6 5 4 4 4 6 4 5 3 4 4 3 2 2 3 5 7 10 10 8 5 5 3 4 11 12 13 11 12 16 15 6 6 6 6 6 6 6 6 7 7 6
5 5 4 3 3 4 5 5 4 4 4 4 4 4 3 3 3 9 8 10 9 3 3 6 8 7 1 3 4 3 3 2 2 4 6 6 5 4 2 2 4 5 6
4 4 3 3 3 3 3 3 3 3 3 4 3 3 3 2 2 2 3 4 7 5 5 3 4 4 2 2 3 3 2 2 3 4 3 2 0 2 2 3 2 3 3
4 3 3 3 3 3 2 2 2 1 3 4 3 3 4 3 3 6 5 3 3 4 4 1 1 1 1 0 1 1 1 1 2 2 4 3 3 2 2 2 3 3 6
2 2 2 3 3 3 2 1 3 5 8 8 8 6 3 5 7 8 8 10 10 11 2 2 2 3 3 3 2 2 2 3 2 1 2 3 3 3 3 1 3 5 6
1 1 1 2 3 4 3 3 4 1 0 3 4 8 11 8 10 9 9 9 9 8 4 3 3 5 5 4 4 4 2 2 1 2 2 3 3 3 3 3 3 3 4
3 3 2 2 2 2 2 2 2 2 2 1 3 4 2 1 2 4 5 5 1 3 2 4 5 5 4 4 4 4 4 4 3 4 4 4 4 3 3 5 5 5 5
2 3 3 2 3 3 3 3 3 3 3 3 1 1 3 3 3 5 8 1 4 4 3 4 4 4 4 4 4 4 4 4 4 4 3 4 5 5 6 5 6 6 4
4 5 3 3 2 2 2 2 2 2 3 3 2 2 1 1 1 2 1 2 3 3 3 4 3 3 3 3 3 4 4 4 4 4 4 4 4 4 6 6 5 6 6
2 3 4 2 3 3 3 4 3 3 3 3 3 3 6 3 3 4 3 3 4 4 4 3 3 3 3 3 3 4 4 5 4 4 4 5 4 4 5 6 6 5 6
3 3 2 4 3 3 4 3 3 3 4 5 4 3 10 4 3 3 4 5 5 5 4 4 4 5 5 5 5 5 5 5 4 4 5 4 4 5 4 5 5 6 5
1 1 1 2 3 3 2 3 4 5 5 5 4 4 3 4 5 5 6 6 4 5 4 4 5 5 4 4 4 5 5 5 5 4 4 4 4 5 4 5 5 4 5
4 4 4 4 3 4 4 5 5 6 6 6 5 6 6 6 6 7 6 5 4 5 4 4 5 6 4 5 4 4 4 4 3 4 6 4 4 4 4 5 5 6 5
4 5 5 6 5 6 5 6 6 6 6 6 6 6 6 5 5 6 5 5 4 4 5 5 5 7 8 8 7 7 7 9 7 6 4 5 6 6 4 4 4 4 5
5 5 6 4 5 5 6 6 7 6 6 6 6 6 6 6 6 5 4 5 4 4 5 4 5 8 8 7 8 8 7 8 7 8 6 5 5 5 4 5 6 5 5
Wind_Direction
180 177 165 172 173 152 154 153 154 148 152 157 157 153 156 157 158 158 164 164 172 176 176 179 188 174 188 191 189 179 205 212 245 247 251 234 251 259 261 282 286 285 280
135 130 147 143 143 153 157 151 149 150 150 152 153 153 156 158 162 165 167 172 177 180 180 180 191 187 198 194 196 205 206 214 230 257 262 248 228 242 259 280 320 301 281
127 131 142 148 150 137 128 132 138 140 141 142 147 154 158 162 163 169 170 172 177 182 180 187 192 192 207 213 210 214 212 217 223 243 261 252 262 246 266 289 292 288 262
108 131 141 150 145 147 144 143 138 140 139 145 152 155 160 162 164 163 167 172 177 186 188 197 204 207 217 213 213 216 208 218 222 234 248 257 249 235 241 286 293 261 291
83 92 110 113 112 115 114 117 121 129 132 138 136 143 148 160 166 166 171 176 179 185 194 198 205 207 216 215 217 215 210 221 230 236 242 242 242 214 231 143 284 302 287
70 78 76 86 97 104 110 112 110 112 116 124 137 148 154 165 182 183 172 174 181 188 196 201 208 213 228 233 231 222 213 215 226 230 238 236 236 211 188 219 257 312 309
85 74 78 87 83 78 96 106 113 123 128 131 139 150 162 163 190 193 190 181 182 189 191 200 210 213 214 223 240 238 233 226 224 222 232 226 215 209 203 223 236 243 252
81 85 87 90 98 97 94 98 103 117 130 140 146 154 156 179 200 203 205 176 193 199 197 198 202 209 211 213 220 234 240 236 236 229 218 216 197 194 199 200 218 249 270
73 78 80 104 108 110 115 120 123 136 139 139 148 156 172 189 206 210 208 198 203 204 202 205 201 209 217 224 213 225 228 235 238 248 247 220 223 226 214 192 214 247 275
94 92 82 85 104 108 116 120 117 133 142 153 156 172 183 187 209 216 215 196 205 191 192 204 212 213 223 226 224 211 228 221 207 223 234 258 257 248 241 212 199 216 228
90 93 88 82 87 102 108 111 104 112 129 132 150 141 164 175 201 211 215 191 202 198 198 205 213 234 229 231 233 213 224 214 223 224 225 228 221 228 234 237 213 209 228
77 79 76 85 105 116 119 107 110 150 147 135 143 151 183 180 200 227 226 224 200 191 187 187 206 232 241 244 239 238 236 238 216 217 220 226 223 228 227 220 224 223 236
88 87 88 91 99 113 124 125 135 171 164 154 168 168 157 148 173 201 204 225 237 197 173 205 213 234 94 58 31 345 13 20 307 227 220 225 214 221 204 216 223 232 237
102 106 119 133 122 111 130 148 157 170 155 155 161 153 147 130 143 111 110 94 110 110 116 95 115 112 76 33 14 1 316 274 243 257 272 265 201 154 204 197 224 215 243
123 143 149 141 142 131 123 150 165 221 176 163 179 161 159 174 195 177 161 158 160 160 119 97 124 141 155 298 326 335 298 273 254 240 232 222 227 227 234 215 242 251 248
130 156 158 143 143 144 157 138 234 195 197 187 175 177 213 196 181 186 191 195 196 178 118 170 194 204 201 207 213 244 251 262 254 219 241 243 234 233 254 235 227 231 245
268 221 161 162 168 167 178 165 166 142 172 208 213 194 189 200 213 218 211 216 224 222 165 185 210 212 216 215 220 216 226 214 321 251 238 236 246 253 235 243 245 250 250
200 215 202 183 183 187 183 179 166 167 169 196 18 80 38 33 268 275 277 283 271 262 190 200 206 206 215 212 213 218 233 235 217 235 236 241 236 238 242 243 244 245 251
234 230 209 215 205 198 183 185 186 183 195 200 250 328 11 355 313 275 259 230 222 232 230 229 218 217 213 212 216 227 229 232 229 222 234 227 223 210 229 237 242 239 234
229 231 214 213 208 211 231 234 231 241 256 250 234 226 209 138 173 198 212 223 228 239 238 246 234 231 227 220 220 222 229 234 240 244 249 245 242 222 243 245 228 233 227
208 219 199 179 212 209 208 215 220 217 224 229 231 202 207 196 231 221 227 232 239 246 243 235 248 242 234 229 229 224 224 239 233 237 244 249 241 233 230 245 245 230 238
193 201 187 204 209 210 224 221 221 235 244 247 253 258 259 269 249 241 234 236 232 231 231 222 224 219 213 206 204 209 210 220 225 227 236 235 239 244 244 248 244 241 232
156 177 217 240 216 226 227 227 223 224 232 233 239 243 219 235 241 246 247 244 232 234 222 214 224 230 219 218 208 202 202 213 218 201 219 233 238 247 238 249 242 241 231
195 212 222 232 216 223 225 234 228 229 234 237 231 232 230 225 223 230 231 235 231 237 230 221 220 225 224 223 217 214 217 222 210 209 202 212 230 229 234 231 231 232 238
216 226 222 228 222 226 225 229 228 226 225 226 232 228 232 229 233 230 230 227 228 227 228 215 214 226 233 230 223 217 216 225 203 201 196 203 221 224 223 230 231 236 237
232 228 233 219 228 221 224 235 234 227 229 230 229 228 225 225 233 230 223 222 224 227 232 229 227 227 232 233 230 224 213 215 211 208 196 200 214 222 211 220 221 230 232